Weather History for Pineville, WV

Change the Weather History Date:

Saturday, October 20, 2012

  Actual Average (KBKW) Record (KBKW)
Temperature  
Mean Temperature 48 °F 52 °F  
Max Temperature 55 °F 62 °F 85 °F (1920)
Min Temperature 42 °F 42 °F 18 °F (1972)
Degree Days  
Heating Degree Days 16 13  
Month to date heating degree days 212  
Since 1 July heating degree days 346  
Cooling Degree Days 0 0  
Month to date cooling degree days 2  
Year to date cooling degree days 552  
Moisture  
Dew Point 43 °F    
Average Humidity 77    
Maximum Humidity 97    
Minimum Humidity 59    
Precipitation  
Precipitation 0.00 in 0.08 in 1.36 in (1961)
Month to date precipitation 1.61  
Year to date precipitation 34.28  
Snow  
Snow 0.00 in - - ()
Month to date snowfall  
Since 1 September snowfall  
Snow Depth -    
Sea Level Pressure  
Sea Level Pressure 29.93 in    
Wind  
Wind Speed - (North)    
Max Wind Speed -    
Max Gust Speed -    
Visibility 10 miles    
Events      
T = Trace of Precipitation, MM = Missing Value Source: NWS Daily Summary

Daily Weather History Graph

Daily Weather History Graph

Search for Another Location

Airport:

Trip Planner

Search our weather history database for the weather conditions in past years. The results will help you decide how hot, cold, wet, or windy it might be!

Date:

Astronomy

Oct. 20, 2012 Rise Set
Actual Time 7:39 AM EDT 6:41 PM EDT
Civil Twilight 7:13 AM EDT 7:08 PM EDT
Nautical Twilight 6:42 AM EDT 7:38 PM EDT
Astronomical Twilight 6:12 AM EDT 8:08 PM EDT
Moon 1:11 PM EDT (10/20) 11:29 PM EDT (10/20)
Length of Visible Light 11h 55m
Length of Day
11h 01m
Waxing Crescent, 34% of the Moon is Illuminated
Oct 20
Waxing Crescent
Oct 21
First Quarter
Oct 29
Full
Nov 6
Last Quarter
Nov 13
New

Hourly Weather History & Observations

Time (EDT) Temp. Dew Point Humidity Pressure Visibility Wind Dir Wind Speed Gust Speed Precip Events Conditions
12:35 AM 50.9 °F 45.5 °F 82% 29.83 in 10.0 mi North - - N/A   Overcast
12:55 AM 50.7 °F 45.7 °F 83% 29.83 in 10.0 mi North - - N/A   Overcast
1:15 AM 50.7 °F 45.9 °F 83% 29.83 in 10.0 mi North - - N/A   Overcast
1:35 AM 50.9 °F 46.2 °F 84% 29.83 in 10.0 mi North - - N/A   Overcast
1:55 AM 50.9 °F 46.4 °F 85% 29.84 in 10.0 mi North - - N/A   Overcast
2:35 AM 50.4 °F 46.2 °F 86% 29.84 in 10.0 mi North - - N/A   Overcast
2:55 AM 50.5 °F 46.2 °F 85% 29.84 in 10.0 mi North - - N/A   Overcast
3:35 AM 50.9 °F 45.9 °F 83% 29.84 in 10.0 mi North - - N/A   Overcast
3:55 AM 51.4 °F 45.1 °F 79% 29.84 in 10.0 mi North - - N/A   Overcast
4:15 AM 50.9 °F 45.0 °F 80% 29.84 in 10.0 mi North - - N/A   Overcast
4:35 AM 50.9 °F 45.0 °F 80% 29.85 in 10.0 mi North - - N/A   Overcast
4:55 AM 51.4 °F 43.2 °F 73% 29.85 in 10.0 mi North - - N/A   Overcast
5:15 AM 51.4 °F 42.4 °F 71% 29.85 in 10.0 mi North - - N/A   Overcast
5:35 AM 51.1 °F 42.1 °F 71% 29.85 in 10.0 mi North - - N/A   Overcast
6:15 AM 46.6 °F 43.7 °F 90% 29.86 in 10.0 mi North - - N/A   Mostly Cloudy
6:35 AM 46.8 °F 44.1 °F 90% 29.87 in 10.0 mi North - - N/A   Overcast
6:55 AM 47.5 °F 43.7 °F 87% 29.87 in 10.0 mi North - - N/A   Overcast
7:15 AM 47.8 °F 44.1 °F 87% 29.87 in 10.0 mi North - - N/A   Overcast
7:35 AM 48.0 °F 44.8 °F 89% 29.89 in 10.0 mi North - - N/A   Overcast
7:55 AM 47.8 °F 45.5 °F 92% 29.89 in 10.0 mi North - - N/A   Overcast
8:15 AM 48.6 °F 44.6 °F 86% 29.90 in 10.0 mi North - - N/A   Overcast
8:35 AM 49.8 °F 44.1 °F 81% 29.91 in 10.0 mi North - - N/A   Overcast
8:55 AM 50.9 °F 43.0 °F 74% 29.91 in 10.0 mi North - - N/A   Overcast
9:15 AM 51.3 °F 42.8 °F 73% 29.92 in 10.0 mi North - - N/A   Overcast
9:35 AM 51.8 °F 43.0 °F 72% 29.92 in 10.0 mi North - - N/A   Overcast
9:55 AM 52.2 °F 43.2 °F 71% 29.92 in 10.0 mi North - - N/A   Overcast
10:15 AM 52.3 °F 43.0 °F 70% 29.92 in 10.0 mi North - - N/A   Overcast
10:35 AM 52.7 °F 43.0 °F 70% 29.93 in 10.0 mi North - - N/A   Overcast
10:55 AM 53.1 °F 42.6 °F 68% 29.93 in 10.0 mi North - - N/A   Overcast
11:15 AM 53.6 °F 41.2 °F 63% 29.93 in 10.0 mi North - - N/A   Overcast
11:35 AM 53.2 °F 41.0 °F 63% 29.93 in 10.0 mi North - - N/A   Overcast
12:15 PM 53.2 °F 40.1 °F 61% 29.94 in 10.0 mi North - - N/A   Overcast
12:55 PM 53.2 °F 40.6 °F 62% 29.94 in 10.0 mi North - - N/A   Overcast
1:15 PM 53.2 °F 40.5 °F 62% 29.94 in 10.0 mi North - - N/A   Overcast
1:35 PM 53.6 °F 41.2 °F 63% 29.94 in 10.0 mi North - - N/A   Overcast
1:55 PM 53.2 °F 41.0 °F 63% 29.94 in 10.0 mi North - - N/A   Overcast
2:15 PM 53.6 °F 41.2 °F 63% 29.94 in 10.0 mi North - - N/A   Overcast
2:35 PM 53.4 °F 41.2 °F 63% 29.94 in 10.0 mi North - - N/A   Overcast
2:55 PM 53.2 °F 41.5 °F 65% 29.94 in 10.0 mi North - - N/A   Overcast
3:15 PM 54.3 °F 41.5 °F 62% 29.94 in 10.0 mi North - - N/A   Overcast
3:35 PM 54.5 °F 41.9 °F 62% 29.94 in 10.0 mi North - - N/A   Overcast
3:55 PM 54.5 °F 41.5 °F 62% 29.94 in 10.0 mi North - - N/A   Overcast
4:15 PM 54.7 °F 41.7 °F 62% 29.94 in 10.0 mi North - - N/A   Overcast
4:35 PM 54.9 °F 41.2 °F 60% 29.95 in 10.0 mi North - - N/A   Overcast
4:55 PM 55.4 °F 41.2 °F 59% 29.95 in 10.0 mi North - - N/A   Overcast
5:15 PM 54.9 °F 41.2 °F 60% 29.96 in 10.0 mi North - - N/A   Overcast
5:35 PM 54.7 °F 41.4 °F 61% 29.97 in 10.0 mi North - - N/A   Overcast
5:55 PM 54.5 °F 41.5 °F 62% 29.98 in 10.0 mi North - - N/A   Overcast
6:15 PM 53.4 °F 42.6 °F 67% 29.98 in 10.0 mi North - - N/A   Mostly Cloudy
6:35 PM 51.1 °F 45.1 °F 80% 29.98 in 10.0 mi North - - N/A   Overcast
6:55 PM 50.4 °F 45.0 °F 82% 29.99 in 10.0 mi North - - N/A   Overcast
7:15 PM 48.9 °F 45.1 °F 87% 29.99 in 10.0 mi North - - N/A   Mostly Cloudy
7:35 PM 48.6 °F 44.4 °F 86% 29.99 in 10.0 mi North - - N/A   Overcast
7:55 PM 48.4 °F 44.2 °F 86% 30.00 in 10.0 mi North - - N/A   Overcast
8:15 PM 47.8 °F 44.4 °F 88% 30.01 in 10.0 mi North - - N/A   Overcast
8:35 PM 47.3 °F 44.8 °F 91% 30.01 in 10.0 mi North - - N/A   Overcast
8:55 PM 46.8 °F 44.2 °F 91% 30.02 in 10.0 mi North - - N/A   Overcast
9:15 PM 46.8 °F 44.6 °F 92% 30.02 in 10.0 mi North - - N/A   Overcast
9:55 PM 46.8 °F 44.6 °F 92% 30.03 in 10.0 mi North - - N/A   Overcast
10:15 PM 45.7 °F 43.9 °F 93% 30.03 in 10.0 mi North - - N/A   Mostly Cloudy
10:35 PM 43.9 °F 42.8 °F 96% 30.04 in 10.0 mi North - - N/A   Scattered Clouds
10:55 PM 43.0 °F 42.3 °F 97% 30.05 in 10.0 mi North - - N/A   Scattered Clouds
11:15 PM 42.8 °F 42.1 °F 97% 30.06 in 10.0 mi North - - N/A   Mostly Cloudy
11:55 PM 44.1 °F 43.3 °F 97% 30.06 in 10.0 mi North - - N/A   Overcast